Theta_e
344 349 354 352 352 351 351 351 351 351 351 350 351 352 351 350 350 350 350 350 350 350 351 351 352 354 353 352 352 352 353 353 354 356 355 356 358 360 361 360 359 357 361
346 349 355 352 351 350 351 350 352 352 350 347 347 346 346 344 343 343 343 343 343 343 344 345 346 348 348 349 350 349 350 351 352 353 354 355 354 357 361 359 360 359 361
346 348 349 352 352 354 353 351 349 347 346 344 342 341 341 340 340 340 340 340 340 339 338 338 338 339 340 341 343 344 345 346 348 350 352 349 352 356 356 358 358 358 359
346 345 345 351 351 350 348 347 345 343 341 340 339 339 338 338 338 338 338 338 338 338 338 337 336 335 335 336 336 338 339 341 344 346 341 343 344 357 356 358 357 358 356
346 347 346 350 348 346 345 344 342 341 339 338 337 337 337 336 336 336 335 336 335 336 336 336 335 335 335 335 335 335 336 337 340 339 330 336 350 354 356 358 356 357 358
346 346 348 347 345 345 343 342 341 339 338 336 335 335 335 335 334 334 334 334 333 333 333 333 334 334 334 334 335 335 336 336 337 325 326 334 344 357 356 355 356 355 358
342 342 341 346 344 343 342 341 339 337 335 334 334 333 334 334 335 334 334 331 332 331 331 331 332 333 333 333 334 334 333 334 326 320 321 325 341 353 353 352 353 354 357
340 338 338 344 343 341 341 340 337 336 336 336 334 334 334 334 332 332 332 331 329 330 330 330 330 329 330 332 332 332 332 333 327 320 318 317 345 353 350 349 350 353 354
340 335 335 336 338 342 341 339 337 336 336 335 333 331 332 332 331 332 333 330 328 328 329 329 330 331 331 331 331 332 333 335 324 320 321 327 351 351 347 346 345 346 349
336 333 333 333 332 331 331 339 338 337 336 335 334 332 331 331 331 332 336 331 329 328 328 331 331 332 332 332 333 334 335 336 324 319 318 334 348 344 342 341 341 342 344
335 332 331 331 329 329 330 333 338 338 337 336 335 335 335 324 325 329 333 333 331 330 329 330 332 333 333 334 335 337 338 324 322 321 324 343 345 341 341 342 341 341 344
333 331 331 330 328 326 331 329 328 329 328 328 329 327 327 324 323 329 332 337 334 333 332 333 334 335 333 323 322 332 326 324 322 317 329 341 340 337 337 336 338 339 342
336 334 331 330 328 327 328 328 328 328 328 328 329 328 327 327 327 326 323 327 324 331 325 328 327 326 324 320 319 317 319 316 316 320 331 338 338 333 332 333 334 336 339
330 331 331 330 327 328 330 329 329 330 331 331 331 328 327 325 327 330 325 326 324 323 323 323 322 322 321 320 318 317 318 317 317 317 325 336 339 334 332 332 332 333 336
329 328 326 326 325 326 324 325 326 328 329 329 328 328 327 326 329 327 327 329 326 327 324 323 322 320 319 319 319 319 319 318 318 318 317 335 339 337 333 333 333 332 333
330 329 327 326 328 325 324 326 325 327 326 327 327 327 326 324 325 326 325 325 326 327 325 322 319 318 318 318 319 319 319 318 318 318 319 319 337 341 338 337 335 334 333
330 331 330 329 330 326 326 329 326 327 331 331 328 326 327 326 328 327 325 324 326 327 324 325 324 321 320 324 321 319 319 320 319 318 319 319 321 336 340 341 341 337 334
332 330 332 332 330 329 327 329 327 329 329 328 328 329 329 328 330 328 325 325 325 324 323 324 322 322 320 322 320 320 319 319 320 321 319 319 317 318 326 340 343 339 335
333 333 331 332 330 330 331 330 331 330 330 330 329 328 331 329 332 328 325 325 325 324 326 322 320 320 321 319 319 321 319 317 319 322 318 318 317 319 317 326 342 342 339
333 336 333 334 332 330 330 331 331 332 333 333 331 328 329 329 331 325 319 322 319 321 322 319 317 319 321 320 321 321 318 318 316 317 317 320 316 315 315 317 319 331 339
336 335 333 330 332 331 331 329 329 327 330 329 329 331 327 325 323 317 316 316 315 316 316 316 316 316 315 317 314 313 315 317 317 318 317 318 316 316 316 317 327 327 326
332 333 334 334 332 330 332 331 330 329 329 330 323 323 321 320 319 317 316 314 314 314 313 313 314 312 313 315 312 309 305 309 313 315 317 318 319 318 318 321 319 320 322
331 332 332 326 324 327 329 326 324 325 326 321 324 321 322 322 321 320 317 316 317 316 313 313 312 312 309 311 314 310 303 302 306 311 315 318 316 315 314 317 318 320 319
328 330 328 322 320 320 321 323 322 321 320 319 319 321 319 320 321 323 319 318 317 316 312 311 315 314 312 309 311 316 311 310 304 304 311 313 315 315 316 318 316 317 319
328 329 323 322 321 320 322 323 323 323 322 319 321 322 319 317 317 316 315 316 315 315 314 313 313 312 312 310 309 310 310 310 310 309 308 308 315 315 316 315 316 315 318
325 327 325 324 323 323 323 321 319 320 321 318 319 316 317 317 318 319 321 317 318 314 314 313 313 312 311 310 311 310 310 308 306 305 305 307 306 309 312 315 315 315 316
Wind_Speed
8 9 13 14 14 14 14 14 15 15 14 13 13 13 13 13 13 13 13 12 12 12 11 11 11 12 11 9 9 9 10 10 9 8 5 3 4 8 7 6 6 10 10
13 9 14 14 14 14 14 14 14 15 14 13 13 12 12 12 12 12 11 11 10 10 9 9 9 8 8 8 8 8 8 9 9 8 7 6 1 4 7 9 10 9 10
13 10 10 14 14 14 14 15 15 14 14 13 13 12 12 11 11 11 11 10 10 9 8 8 7 7 7 7 7 8 8 9 10 8 8 3 3 4 4 8 11 9 8
13 9 7 15 13 13 13 14 13 13 12 12 11 11 11 11 10 10 10 9 8 8 8 7 7 7 7 7 7 8 8 10 11 11 4 6 7 9 6 7 9 9 7
12 9 10 15 13 13 12 12 12 11 11 10 10 10 10 9 9 8 7 7 6 6 6 6 6 6 6 7 8 8 9 10 12 10 5 6 5 7 9 8 8 8 7
12 10 13 15 14 13 12 11 11 10 10 9 9 9 9 9 8 7 6 5 4 3 4 5 4 5 4 5 7 8 9 10 12 6 5 5 4 12 11 9 7 4 7
12 11 10 15 14 13 12 11 11 10 9 8 8 7 7 7 7 6 5 4 5 3 3 3 3 5 4 4 6 7 9 11 7 7 6 4 7 13 11 10 8 5 5
16 13 11 16 15 14 13 12 11 10 10 8 7 6 6 6 6 6 6 4 2 2 1 2 1 2 3 5 7 10 11 12 9 7 8 4 8 12 12 9 8 4 4
16 15 11 11 14 17 15 14 13 11 10 9 7 6 5 5 5 6 7 5 3 3 2 3 4 6 6 8 11 12 14 14 7 5 8 4 12 12 11 9 6 4 2
16 15 13 10 10 9 8 15 14 13 11 9 9 8 7 7 6 7 9 6 5 5 4 6 8 9 9 11 12 16 15 16 7 6 5 4 9 10 10 8 6 3 3
14 15 14 13 10 10 9 10 15 15 14 13 11 11 8 4 6 9 10 10 9 7 7 8 10 10 10 11 14 18 18 3 6 5 3 10 9 8 7 5 3 3 5
16 18 15 15 15 12 10 9 8 8 5 5 6 6 5 6 6 10 13 13 9 9 8 11 12 12 9 4 4 10 2 5 4 4 2 10 8 7 6 4 1 2 5
19 15 19 16 14 14 10 7 5 4 4 4 7 7 6 5 3 3 1 3 4 9 4 7 7 4 6 4 3 3 4 4 2 2 5 8 7 6 6 5 4 5 7
8 16 14 12 10 11 9 7 8 6 6 5 6 10 5 2 3 3 2 4 4 4 7 6 3 5 5 5 3 6 6 4 2 2 3 9 9 9 9 8 8 9 10
9 13 12 9 7 7 7 4 5 6 4 7 6 5 4 3 2 1 2 1 3 4 4 2 3 2 2 3 5 5 6 5 3 3 2 7 11 11 10 10 11 11 13
9 10 9 8 6 7 5 4 2 3 4 5 5 6 7 4 3 1 1 3 4 3 3 1 1 1 3 3 6 6 7 5 6 6 4 5 10 13 15 16 16 14 13
7 8 7 9 8 8 7 5 2 2 2 4 5 6 7 6 5 4 2 3 4 4 5 3 4 3 3 3 5 5 5 6 5 6 6 5 6 11 9 17 19 15 13
12 11 9 9 9 7 6 3 1 3 3 2 2 2 6 5 5 3 3 4 4 2 2 3 3 4 4 4 4 5 5 5 6 6 6 6 5 4 7 10 15 16 15
18 13 10 10 9 8 7 5 4 6 2 3 1 3 5 5 5 4 3 4 3 1 1 2 3 1 3 5 5 6 4 3 5 7 6 6 7 6 4 8 12 16 14
12 13 12 10 8 6 5 3 2 3 3 4 4 3 7 5 5 4 3 4 2 2 2 3 2 4 3 4 5 7 6 5 5 5 6 6 6 7 5 7 4 6 14
11 18 12 8 5 6 3 2 0 4 5 5 4 5 6 6 6 5 3 3 3 3 2 3 3 3 2 3 3 4 4 5 7 8 5 6 6 7 5 5 4 3 3
19 18 9 8 4 6 4 5 6 7 5 11 3 4 6 6 6 4 4 4 3 2 3 2 1 2 2 2 4 2 4 5 5 7 7 8 11 4 5 5 6 6 5
12 9 7 8 9 8 6 8 4 3 7 11 5 4 4 6 6 6 6 5 5 3 4 3 3 3 2 2 3 3 3 3 3 4 6 4 2 4 3 4 4 6 6
5 6 9 8 10 7 7 7 5 6 11 6 4 2 2 3 5 5 2 4 6 4 4 3 3 4 3 3 2 4 4 4 3 6 3 5 3 2 1 2 3 4 5
4 9 8 8 6 6 5 5 5 7 9 3 3 4 1 3 4 6 4 5 6 4 3 4 6 5 3 2 3 2 2 3 5 6 9 4 4 2 3 4 5 3 3
4 6 6 6 4 4 5 8 6 9 3 4 5 5 6 4 5 6 7 5 2 4 5 5 6 6 6 5 4 4 4 5 3 3 5 6 4 5 3 2 4 5 5
Wind_Direction
129 130 125 121 117 114 111 107 103 98 95 91 84 81 78 74 72 73 72 66 62 59 55 52 47 44 45 47 42 31 19 16 16 22 34 61 103 116 113 97 129 121 127
129 129 127 126 121 120 118 118 113 103 97 96 93 91 90 88 83 78 74 71 66 60 53 49 44 40 34 27 25 19 13 -0 354 359 359 336 216 140 126 105 114 126 128
127 127 132 124 126 119 111 108 106 107 108 107 103 100 96 90 85 81 75 70 65 58 54 42 34 25 19 10 5 1 354 343 333 336 343 304 252 188 137 116 119 127 133
133 131 141 132 130 124 119 115 116 114 111 110 106 104 103 98 92 86 79 72 64 55 49 41 31 18 5 352 348 345 339 330 325 326 333 285 244 173 154 133 129 134 136
132 135 138 139 135 129 126 122 122 119 115 114 113 113 112 108 101 93 83 74 63 53 44 33 18 7 359 348 340 336 331 323 317 323 300 297 88 143 155 146 141 147 162
127 133 140 142 140 138 135 132 130 126 126 122 125 128 126 121 114 105 92 65 47 48 28 13 5 352 333 333 332 330 324 314 312 311 298 263 182 154 153 142 122 132 167
137 140 145 149 147 147 144 142 138 137 132 135 134 135 139 139 138 137 119 86 62 71 39 50 41 11 350 322 313 307 305 307 313 301 292 320 194 160 150 143 132 136 163
145 147 157 156 155 153 152 151 147 146 141 141 139 152 166 167 162 150 139 134 120 108 49 65 39 330 321 302 295 296 295 296 300 302 303 310 214 157 147 134 126 130 193
154 151 160 162 163 161 161 159 156 154 156 158 165 176 191 189 179 167 173 179 176 189 217 244 260 266 273 278 284 284 287 290 290 284 307 279 175 154 141 137 133 138 211
156 157 163 168 164 158 165 168 166 169 174 180 193 199 212 217 210 201 205 199 209 198 221 248 261 266 276 282 284 282 278 283 288 284 256 215 153 153 139 140 146 168 240
167 164 168 171 176 165 168 179 178 182 188 194 205 207 215 212 222 222 217 210 220 206 216 238 254 259 271 281 286 281 274 260 278 273 192 167 160 147 130 128 147 200 246
179 173 170 181 176 170 173 179 185 192 190 195 212 220 216 222 227 212 224 204 222 231 225 244 250 258 273 271 267 305 282 270 269 269 132 160 161 140 131 123 137 252 269
185 177 171 187 172 172 176 175 186 191 191 204 213 228 218 200 219 255 275 211 230 247 225 248 256 247 237 249 288 302 265 261 267 121 154 171 162 159 162 171 208 252 260
160 160 160 164 152 169 172 172 189 185 198 200 201 203 170 207 242 217 202 206 227 243 223 235 235 256 244 250 282 284 289 312 342 122 215 195 194 194 197 200 216 240 249
147 151 154 153 159 137 154 170 140 177 170 186 187 195 174 188 215 279 313 320 308 310 271 272 168 85 6 307 288 269 260 246 250 270 260 241 209 216 226 234 239 244 250
146 146 148 156 153 139 136 162 163 164 177 162 175 179 188 180 184 106 300 317 300 314 292 223 253 259 282 270 277 272 268 245 229 228 230 241 248 218 231 242 244 242 247
144 140 127 128 137 140 134 130 109 273 287 213 199 206 189 171 187 166 231 292 284 322 286 340 331 319 301 274 264 282 276 253 250 245 230 223 234 249 244 239 249 240 244
146 149 157 148 143 146 142 137 175 261 254 179 198 232 206 203 180 183 218 249 271 290 6 8 321 310 294 276 301 297 295 296 278 255 241 222 217 221 248 250 237 236 238
153 156 176 155 153 148 160 170 223 239 236 264 260 135 176 185 201 186 233 262 241 74 5 14 332 274 311 311 313 293 293 304 298 299 282 261 236 219 223 240 223 225 229
147 165 160 139 147 168 143 165 252 272 265 246 224 169 163 189 214 165 185 164 118 94 12 21 302 301 275 268 284 297 295 288 282 266 270 273 239 234 229 232 234 217 209
156 156 156 83 155 153 158 146 0 308 321 296 266 210 185 179 174 179 190 151 113 136 171 232 248 254 301 281 330 308 289 287 285 273 251 252 242 233 235 226 178 171 194
69 50 68 204 131 62 61 35 55 21 306 294 278 203 202 183 185 195 198 197 201 176 220 270 210 282 207 285 269 275 303 322 281 259 270 265 238 201 206 164 168 176 164
111 159 142 71 73 72 81 90 90 67 294 270 297 259 193 180 210 227 200 186 205 183 213 212 256 264 226 251 205 205 306 249 329 313 318 321 278 223 216 185 172 193 187
146 97 85 98 102 106 115 129 179 182 233 275 262 271 160 322 325 316 120 206 214 209 210 228 253 239 235 245 275 223 224 214 244 308 320 325 302 246 127 279 203 222 225
107 88 116 117 124 176 139 192 184 224 233 252 334 71 40 61 347 325 337 280 245 249 242 241 273 250 243 232 210 264 267 253 223 229 275 294 316 319 290 269 252 274 303
49 90 131 141 101 94 124 218 217 254 249 340 333 348 351 346 348 360 348 349 355 307 297 277 266 244 240 240 242 230 228 237 245 210 250 261 247 269 235 217 231 258 235